CCA978 WIII-ZBAA

Flight info

Callsign CCA978
Flight time 6h 31m
Altitude 33000
Route DOLTA G579 PARDI DCT PU B469 VMR M771 DUDIS/K0906F330 M771 DOSUT/N0482F330 M771 DUMOL J103 BEKOL/K0891S1005 A461 BUBDA W56 DUGEB DUGEB5D
Aircraft B77W/H-SDE1E2E3FGHIJ2J3J4J5M1RWXY/LB1D1

Departure

Time 2026-05-05 06:00
Airport Soekarno-Hatta International Airport (WIII)

Arrival

Time 2026-05-05 12:32
Airport Beijing Capital International Airport (ZBAA)
Time Latitude Longitude Altitude Speed Heading
2026-05-05 05:37 -6.12276 106.64857 47 ft 0 kts 137°
2026-05-05 05:48 -6.12272 106.64853 48 ft 2 kts 137°
2026-05-05 05:49 -6.12259 106.64841 48 ft 3 kts 137°
2026-05-05 05:49 -6.12245 106.64828 48 ft 3 kts 137°
2026-05-05 05:49 -6.12230 106.64814 48 ft 3 kts 137°
2026-05-05 05:49 -6.12217 106.64803 48 ft 0 kts 137°
2026-05-05 05:51 -6.12223 106.64806 48 ft 2 kts 148°
2026-05-05 05:51 -6.12249 106.64809 48 ft 7 kts 208°
2026-05-05 05:51 -6.12318 106.64777 48 ft 15 kts 177°
2026-05-05 05:52 -6.12429 106.64813 48 ft 10 kts 159°
2026-05-05 05:52 -6.12492 106.64837 48 ft 9 kts 159°
2026-05-05 05:52 -6.12554 106.64861 48 ft 9 kts 159°
2026-05-05 05:52 -6.12600 106.64866 48 ft 3 kts 202°
2026-05-05 05:53 -6.12619 106.64850 48 ft 6 kts 230°
2026-05-05 05:53 -6.12661 106.64767 48 ft 17 kts 247°
2026-05-05 05:53 -6.12698 106.64681 48 ft 5 kts 233°
2026-05-05 05:53 -6.12770 106.64672 49 ft 9 kts 161°
2026-05-05 05:54 -6.12800 106.64683 53 ft 6 kts 160°
2026-05-05 05:54 -6.12855 106.64705 60 ft 10 kts 158°
2026-05-05 05:54 -6.12933 106.64736 68 ft 9 kts 159°
2026-05-05 05:54 -6.13023 106.64771 58 ft 8 kts 159°
2026-05-05 05:55 -6.13103 106.64804 48 ft 18 kts 156°
2026-05-05 05:55 -6.13218 106.64851 48 ft 16 kts 159°
2026-05-05 05:55 -6.13327 106.64894 48 ft 16 kts 159°
2026-05-05 05:55 -6.13431 106.64934 48 ft 16 kts 159°
2026-05-05 05:56 -6.13528 106.64973 48 ft 15 kts 158°
2026-05-05 05:56 -6.13638 106.65017 48 ft 23 kts 158°
2026-05-05 05:56 -6.13735 106.65054 48 ft 7 kts 167°
2026-05-05 05:56 -6.13806 106.65001 48 ft 20 kts 243°
2026-05-05 05:57 -6.13850 106.64889 48 ft 17 kts 249°
2026-05-05 05:57 -6.13908 106.64741 48 ft 26 kts 248°
2026-05-05 05:57 -6.13967 106.64600 48 ft 18 kts 247°
2026-05-05 05:57 -6.14019 106.64467 48 ft 21 kts 248°
2026-05-05 05:58 -6.14060 106.64364 48 ft 11 kts 248°
2026-05-05 05:58 -6.14106 106.64295 48 ft 8 kts 199°
2026-05-05 05:58 -6.14136 106.64299 48 ft 0 kts 159°
2026-05-05 05:59 -6.14150 106.64304 48 ft 5 kts 159°
2026-05-05 05:59 -6.14199 106.64345 48 ft 11 kts 119°
2026-05-05 05:59 -6.14222 106.64418 48 ft 11 kts 93°
2026-05-05 05:59 -6.14128 106.64683 48 ft 86 kts 67°
2026-05-05 06:00 -6.13785 106.65544 48 ft 176 kts 68°
2026-05-05 06:00 -6.13264 106.66845 489 ft 215 kts 68°
2026-05-05 06:00 -6.12692 106.68283 1430 ft 225 kts 68°
2026-05-05 06:00 -6.12108 106.69763 2091 ft 230 kts 68°
2026-05-05 06:01 -6.11542 106.71268 2723 ft 232 kts 73°
2026-05-05 06:01 -6.11442 106.72878 3347 ft 234 kts 97°
2026-05-05 06:01 -6.11982 106.74418 3916 ft 237 kts 119°
2026-05-05 06:01 -6.13040 106.75656 4485 ft 241 kts 137°
2026-05-05 06:02 -6.14481 106.76558 5121 ft 250 kts 160°
2026-05-05 06:02 -6.16228 106.76717 5769 ft 259 kts 186°
2026-05-05 06:02 -6.17966 106.76143 6403 ft 269 kts 209°
2026-05-05 06:02 -6.19381 106.74839 7062 ft 279 kts 232°
2026-05-05 06:03 -6.20251 106.73098 7692 ft 290 kts 251°
2026-05-05 06:03 -6.20607 106.71070 8332 ft 301 kts 265°
2026-05-05 06:03 -6.20644 106.68938 8966 ft 310 kts 267°
2026-05-05 06:03 -6.20849 106.66743 9599 ft 322 kts 262°
2026-05-05 06:04 -6.21219 106.64484 10233 ft 332 kts 259°
2026-05-05 06:04 -6.21704 106.62182 10861 ft 342 kts 257°
2026-05-05 06:04 -6.22228 106.59826 11488 ft 347 kts 258°
2026-05-05 06:04 -6.22699 106.57431 12112 ft 351 kts 262°
2026-05-05 06:05 -6.22637 106.54981 12726 ft 355 kts 282°
2026-05-05 06:05 -6.21733 106.52659 13359 ft 361 kts 298°
2026-05-05 06:05 -6.20429 106.50492 13990 ft 366 kts 299°
2026-05-05 06:05 -6.19201 106.48226 14613 ft 371 kts 300°
2026-05-05 06:06 -6.17755 106.46052 15235 ft 378 kts 307°
2026-05-05 06:06 -6.16032 106.44034 15863 ft 384 kts 313°
2026-05-05 06:06 -6.14167 106.42089 16489 ft 389 kts 314°
2026-05-05 06:06 -6.12269 106.40121 17113 ft 394 kts 314°
2026-05-05 06:07 -6.10195 106.38316 17736 ft 397 kts 325°
2026-05-05 06:07 -6.07780 106.36949 18364 ft 401 kts 335°
2026-05-05 06:07 -6.05197 106.35867 18990 ft 404 kts 339°
2026-05-05 06:07 -6.02544 106.34894 19616 ft 408 kts 340°
2026-05-05 06:08 -5.99830 106.33992 20129 ft 414 kts 343°
2026-05-05 06:08 -5.97035 106.33182 20508 ft 423 kts 345°
2026-05-05 06:08 -5.94193 106.32434 20881 ft 432 kts 346°
2026-05-05 06:08 -5.91220 106.31668 21262 ft 439 kts 345°
2026-05-05 06:09 -5.88243 106.30888 21638 ft 444 kts 345°
2026-05-05 06:09 -5.85281 106.30107 22008 ft 448 kts 345°
2026-05-05 06:09 -5.82254 106.29306 22383 ft 452 kts 345°
2026-05-05 06:09 -5.79210 106.28500 22757 ft 454 kts 345°
2026-05-05 06:10 -5.76161 106.27629 23128 ft 457 kts 341°
2026-05-05 06:10 -5.73179 106.26494 23506 ft 460 kts 337°
2026-05-05 06:10 -5.70264 106.25158 23883 ft 462 kts 334°
2026-05-05 06:10 -5.67408 106.23657 24259 ft 464 kts 331°
2026-05-05 06:11 -5.64599 106.22036 24635 ft 467 kts 329°
2026-05-05 06:11 -5.61806 106.20361 25010 ft 470 kts 329°
2026-05-05 06:11 -5.58975 106.18696 25386 ft 472 kts 330°
2026-05-05 06:11 -5.57051 106.17589 25640 ft 474 kts 330°
2026-05-05 06:12 -5.54208 106.15981 26011 ft 477 kts 330°
2026-05-05 06:12 -5.51309 106.14347 26386 ft 479 kts 330°
2026-05-05 06:12 -5.48391 106.12701 26762 ft 482 kts 330°
2026-05-05 06:12 -5.45461 106.11048 27137 ft 485 kts 330°
2026-05-05 06:13 -5.41519 106.08824 27640 ft 488 kts 330°
2026-05-05 06:13 -5.39556 106.07717 27889 ft 489 kts 330°
2026-05-05 06:13 -5.36587 106.06038 28265 ft 491 kts 330°
2026-05-05 06:13 -5.33607 106.04356 28641 ft 492 kts 330°
2026-05-05 06:14 -5.30627 106.02674 29016 ft 493 kts 330°
2026-05-05 06:14 -5.27629 106.00982 29392 ft 494 kts 330°
2026-05-05 06:14 -5.24635 105.99292 29768 ft 494 kts 330°
2026-05-05 06:14 -5.21638 105.97601 30143 ft 494 kts 330°
2026-05-05 06:15 -5.18645 105.95912 30518 ft 494 kts 330°
2026-05-05 06:15 -5.15648 105.94221 30892 ft 494 kts 330°
2026-05-05 06:15 -5.12658 105.92535 31267 ft 493 kts 330°
2026-05-05 06:15 -5.09678 105.90840 31642 ft 492 kts 330°
2026-05-05 06:16 -5.06707 105.89147 32016 ft 491 kts 330°
2026-05-05 06:16 -5.03740 105.87455 32391 ft 489 kts 330°
2026-05-05 06:16 -5.00788 105.85772 32765 ft 488 kts 330°
2026-05-05 06:16 -4.97834 105.84089 32976 ft 489 kts 330°
2026-05-05 06:17 -4.91922 105.80720 33000 ft 489 kts 330°
2026-05-05 06:17 -4.86005 105.77350 33000 ft 489 kts 330°
2026-05-05 06:18 -4.80093 105.73980 32999 ft 488 kts 330°
2026-05-05 06:18 -4.74184 105.70612 33000 ft 489 kts 330°
2026-05-05 06:19 -4.68273 105.67245 33000 ft 489 kts 330°
2026-05-05 06:19 -4.62361 105.63878 33000 ft 489 kts 330°
2026-05-05 06:20 -4.56494 105.60538 33000 ft 489 kts 330°
2026-05-05 06:20 -4.50574 105.57168 32999 ft 489 kts 330°
2026-05-05 06:21 -4.44668 105.53807 33000 ft 489 kts 330°
2026-05-05 06:21 -4.38757 105.50444 33000 ft 489 kts 330°
2026-05-05 06:22 -4.32839 105.47077 32999 ft 489 kts 330°
2026-05-05 06:22 -4.26927 105.43714 33000 ft 489 kts 330°
2026-05-05 06:23 -4.21014 105.40352 33000 ft 489 kts 330°
2026-05-05 06:23 -4.15107 105.36991 33000 ft 489 kts 330°
2026-05-05 06:24 -4.09192 105.33628 33000 ft 489 kts 330°
2026-05-05 06:24 -4.03279 105.30267 32999 ft 489 kts 330°
2026-05-05 06:25 -3.97403 105.26928 33000 ft 489 kts 330°
2026-05-05 06:25 -3.91496 105.23572 33000 ft 489 kts 330°
2026-05-05 06:26 -3.85564 105.20231 32999 ft 489 kts 330°
2026-05-05 06:26 -3.79637 105.16899 33000 ft 489 kts 330°
2026-05-05 06:27 -3.70750 105.11899 33000 ft 489 kts 330°
2026-05-05 06:28 -3.64824 105.08564 33000 ft 489 kts 330°
2026-05-05 06:28 -3.58892 105.05224 33000 ft 489 kts 330°
2026-05-05 06:29 -3.52967 105.01889 33000 ft 489 kts 330°
2026-05-05 06:29 -3.47045 104.98556 32999 ft 489 kts 330°
2026-05-05 06:30 -3.41117 104.95222 33000 ft 489 kts 330°
2026-05-05 06:30 -3.35190 104.91887 33000 ft 489 kts 330°
2026-05-05 06:31 -3.29263 104.88554 32999 ft 489 kts 330°
2026-05-05 06:31 -3.23334 104.85220 33000 ft 489 kts 330°
2026-05-05 06:32 -3.17447 104.81909 33000 ft 489 kts 330°
2026-05-05 06:32 -3.11485 104.78556 32999 ft 489 kts 330°
2026-05-05 06:33 -3.05597 104.75246 33000 ft 489 kts 330°
2026-05-05 06:33 -2.99669 104.71915 33000 ft 489 kts 330°
2026-05-05 06:34 -2.93741 104.68583 33000 ft 489 kts 330°
2026-05-05 06:34 -2.87616 104.65677 33003 ft 488 kts 341°
2026-05-05 06:35 -2.81042 104.63950 33000 ft 489 kts 348°
2026-05-05 06:35 -2.74360 104.62679 33000 ft 489 kts 350°
2026-05-05 06:36 -2.67668 104.61459 32999 ft 489 kts 349°
2026-05-05 06:36 -2.60983 104.60213 33000 ft 489 kts 349°
2026-05-05 06:37 -2.54299 104.58956 33000 ft 489 kts 349°
2026-05-05 06:37 -2.47626 104.57698 32999 ft 489 kts 349°
2026-05-05 06:38 -2.40938 104.56436 33000 ft 489 kts 349°
2026-05-05 06:38 -2.34256 104.55175 33000 ft 489 kts 349°
2026-05-05 06:39 -2.27576 104.53915 32999 ft 489 kts 349°
2026-05-05 06:39 -2.20939 104.52663 33000 ft 489 kts 349°
2026-05-05 06:40 -2.14256 104.51402 33000 ft 489 kts 349°
2026-05-05 06:40 -2.07574 104.50141 33000 ft 489 kts 349°
2026-05-05 06:41 -2.00893 104.48881 33000 ft 489 kts 349°
2026-05-05 06:41 -1.94216 104.47622 32999 ft 489 kts 349°
2026-05-05 06:42 -1.87534 104.46361 33000 ft 489 kts 349°
2026-05-05 06:42 -1.80853 104.45102 33000 ft 489 kts 349°
2026-05-05 06:43 -1.74171 104.43842 32999 ft 489 kts 349°
2026-05-05 06:43 -1.67490 104.42582 33000 ft 489 kts 349°
2026-05-05 06:44 -1.60809 104.41322 33000 ft 489 kts 349°
2026-05-05 06:44 -1.54127 104.40062 32999 ft 489 kts 349°
2026-05-05 06:45 -1.47443 104.38802 33000 ft 489 kts 349°
2026-05-05 06:45 -1.40762 104.37543 32999 ft 489 kts 349°
2026-05-05 06:46 -1.34079 104.36283 33000 ft 489 kts 349°
2026-05-05 06:46 -1.27401 104.35024 33000 ft 489 kts 349°
2026-05-05 06:47 -1.20720 104.33765 32999 ft 489 kts 349°
2026-05-05 06:47 -1.14031 104.32504 33000 ft 489 kts 349°
2026-05-05 06:48 -1.07349 104.31245 33000 ft 489 kts 349°
2026-05-05 06:48 -1.00667 104.29986 32999 ft 489 kts 349°
2026-05-05 06:49 -0.93986 104.28727 33000 ft 489 kts 349°
2026-05-05 06:49 -0.87305 104.27468 32999 ft 489 kts 349°
2026-05-05 06:50 -0.80622 104.26208 33000 ft 489 kts 349°
2026-05-05 06:50 -0.73984 104.24957 33000 ft 489 kts 349°
2026-05-05 06:51 -0.67300 104.23698 32999 ft 489 kts 349°
2026-05-05 06:51 -0.60618 104.22439 33000 ft 489 kts 349°
2026-05-05 06:52 -0.53934 104.21205 33000 ft 489 kts 351°
2026-05-05 06:52 -0.47201 104.20244 32999 ft 489 kts 352°
2026-05-05 06:53 -0.40467 104.19350 33000 ft 489 kts 352°
2026-05-05 06:53 -0.33732 104.18413 32999 ft 489 kts 352°
2026-05-05 06:54 -0.26992 104.17459 33000 ft 489 kts 352°
2026-05-05 06:54 -0.20260 104.16501 33000 ft 489 kts 352°
2026-05-05 06:55 -0.13532 104.15541 32999 ft 489 kts 352°
2026-05-05 06:55 -0.06800 104.14581 33000 ft 489 kts 352°
2026-05-05 06:56 -0.00068 104.13621 33000 ft 489 kts 352°
2026-05-05 06:56 0.06658 104.12661 33000 ft 489 kts 352°
2026-05-05 06:57 0.13350 104.11706 33000 ft 489 kts 352°
2026-05-05 06:57 0.20120 104.10740 32999 ft 489 kts 352°
2026-05-05 06:58 0.26808 104.09786 33000 ft 489 kts 352°
2026-05-05 06:58 0.33539 104.08825 33000 ft 489 kts 352°
2026-05-05 06:59 0.40271 104.07864 32999 ft 489 kts 352°
2026-05-05 06:59 0.47006 104.06903 33000 ft 489 kts 352°
2026-05-05 07:00 0.53731 104.05944 33000 ft 489 kts 352°
2026-05-05 07:00 0.60463 104.04983 33000 ft 489 kts 352°
2026-05-05 07:01 0.66056 104.04185 32999 ft 489 kts 352°
2026-05-05 07:01 0.72788 104.03224 33000 ft 489 kts 352°
2026-05-05 07:02 0.79522 104.02263 33000 ft 489 kts 352°
2026-05-05 07:02 0.86254 104.01302 32999 ft 489 kts 352°
2026-05-05 07:03 0.92986 104.00341 33000 ft 489 kts 352°
2026-05-05 07:03 0.99718 103.99380 33000 ft 489 kts 352°
2026-05-05 07:04 1.06448 103.98419 32999 ft 489 kts 352°
2026-05-05 07:04 1.13132 103.97465 33000 ft 489 kts 352°
2026-05-05 07:05 1.19866 103.96504 33000 ft 489 kts 352°
2026-05-05 07:05 1.26598 103.95543 32999 ft 489 kts 352°
2026-05-05 07:06 1.33323 103.94582 33000 ft 489 kts 352°
2026-05-05 07:06 1.40057 103.93621 33000 ft 489 kts 352°
2026-05-05 07:07 1.46814 103.92899 33000 ft 489 kts 357°
2026-05-05 07:07 1.53609 103.92636 32999 ft 489 kts 357°
2026-05-05 07:08 1.60400 103.92209 33000 ft 489 kts 356°
2026-05-05 07:08 1.67184 103.91758 33000 ft 489 kts 356°
2026-05-05 07:09 1.73969 103.91308 33000 ft 489 kts 356°
2026-05-05 07:09 1.80766 103.91224 33000 ft 489 kts
2026-05-05 07:10 1.87554 103.91578 33000 ft 489 kts
2026-05-05 07:10 1.94356 103.91609 33001 ft 489 kts 357°
2026-05-05 07:11 2.01121 103.90993 33000 ft 489 kts 353°
2026-05-05 07:11 2.07876 103.90209 33000 ft 489 kts 354°
2026-05-05 07:12 2.14642 103.89534 33000 ft 489 kts 354°
2026-05-05 07:12 2.21366 103.88884 33000 ft 489 kts 354°
2026-05-05 07:13 2.28135 103.88231 33000 ft 489 kts 354°
2026-05-05 07:13 2.34909 103.87651 32996 ft 488 kts
2026-05-05 07:13 2.38278 103.87956 32999 ft 488 kts 11°
2026-05-05 07:14 2.41537 103.88907 33002 ft 489 kts 21°
2026-05-05 07:14 2.47493 103.92178 33002 ft 489 kts 33°
2026-05-05 07:15 2.53129 103.95977 32999 ft 489 kts 33°
2026-05-05 07:15 2.58846 103.99660 33000 ft 489 kts 32°
2026-05-05 07:16 2.64616 104.03255 33000 ft 489 kts 32°
2026-05-05 07:16 2.70385 104.06842 33000 ft 489 kts 32°
2026-05-05 07:17 2.76162 104.10436 33000 ft 489 kts 32°
2026-05-05 07:17 2.81937 104.14028 33000 ft 489 kts 32°
2026-05-05 07:18 2.87703 104.17617 33000 ft 489 kts 32°
2026-05-05 07:18 2.93477 104.21212 32999 ft 489 kts 32°
2026-05-05 07:19 2.99249 104.24806 33000 ft 489 kts 32°
2026-05-05 07:19 3.05021 104.28400 33000 ft 489 kts 32°
2026-05-05 07:20 3.10775 104.32028 33000 ft 489 kts 32°
2026-05-05 07:20 3.16530 104.35643 33000 ft 489 kts 32°
2026-05-05 07:21 3.22318 104.39213 33000 ft 489 kts 32°
2026-05-05 07:21 3.28099 104.42796 33000 ft 489 kts 32°
2026-05-05 07:22 3.33871 104.46376 33000 ft 489 kts 32°
2026-05-05 07:22 3.39651 104.49963 32999 ft 489 kts 32°
2026-05-05 07:23 3.45390 104.53525 33000 ft 489 kts 32°
2026-05-05 07:23 3.51168 104.57114 33000 ft 489 kts 32°
2026-05-05 07:24 3.56945 104.60703 33000 ft 489 kts 32°
2026-05-05 07:24 3.62722 104.64294 33000 ft 489 kts 32°
2026-05-05 07:25 3.68494 104.67883 33000 ft 489 kts 32°
2026-05-05 07:25 3.74269 104.71476 33000 ft 489 kts 32°
2026-05-05 07:26 3.80043 104.75067 33000 ft 489 kts 32°
2026-05-05 07:26 3.85820 104.78664 32999 ft 489 kts 32°
2026-05-05 07:27 3.91588 104.82256 32999 ft 489 kts 32°
2026-05-05 07:27 3.97363 104.85851 33000 ft 489 kts 32°
2026-05-05 07:28 4.03138 104.89449 33000 ft 489 kts 32°
2026-05-05 07:28 4.08911 104.93048 33000 ft 489 kts 32°
2026-05-05 07:29 4.14683 104.96647 33000 ft 489 kts 32°
2026-05-05 07:29 4.20448 105.00241 33000 ft 489 kts 32°
2026-05-05 07:30 4.26225 105.03836 33000 ft 489 kts 32°
2026-05-05 07:30 4.34893 105.09226 33000 ft 489 kts 32°
2026-05-05 07:31 4.40664 105.12817 33000 ft 489 kts 32°
2026-05-05 07:31 4.46401 105.16389 33000 ft 489 kts 32°
2026-05-05 07:32 4.52176 105.19983 33000 ft 489 kts 32°
2026-05-05 07:32 4.57950 105.23575 32999 ft 489 kts 32°
2026-05-05 07:33 4.63726 105.27172 32999 ft 489 kts 32°
2026-05-05 07:33 4.69501 105.30770 33000 ft 489 kts 32°
2026-05-05 07:34 4.75276 105.34369 33000 ft 489 kts 32°
2026-05-05 07:34 4.81045 105.37964 33000 ft 489 kts 32°
2026-05-05 07:35 4.86767 105.41644 33000 ft 489 kts 33°
2026-05-05 07:35 4.92461 105.45372 33000 ft 489 kts 33°
2026-05-05 07:36 4.98160 105.49089 33000 ft 489 kts 33°
2026-05-05 07:36 5.03861 105.52805 33000 ft 489 kts 33°
2026-05-05 07:37 5.09563 105.56519 32999 ft 489 kts 33°
2026-05-05 07:37 5.15262 105.60226 32999 ft 489 kts 33°
2026-05-05 07:38 5.20966 105.63939 33000 ft 489 kts 33°
2026-05-05 07:38 5.26669 105.67653 33000 ft 489 kts 33°
2026-05-05 07:39 5.32372 105.71369 33000 ft 489 kts 33°
2026-05-05 07:39 5.38075 105.75085 33000 ft 489 kts 33°
2026-05-05 07:40 5.43738 105.78777 33000 ft 489 kts 33°
2026-05-05 07:40 5.49441 105.82495 33000 ft 489 kts 33°
2026-05-05 07:41 5.55139 105.86210 33000 ft 489 kts 33°
2026-05-05 07:41 5.60840 105.89929 32999 ft 489 kts 33°
2026-05-05 07:42 5.66541 105.93649 32999 ft 489 kts 33°
2026-05-05 07:42 5.72241 105.97369 33000 ft 489 kts 33°
2026-05-05 07:43 5.77936 106.01086 33000 ft 489 kts 33°
2026-05-05 07:43 5.83637 106.04808 33000 ft 489 kts 33°
2026-05-05 07:44 5.89337 106.08530 33000 ft 489 kts 33°
2026-05-05 07:44 5.95037 106.12254 33000 ft 489 kts 33°
2026-05-05 07:45 6.00738 106.15979 33000 ft 489 kts 33°
2026-05-05 07:45 6.06436 106.19703 33000 ft 489 kts 33°
2026-05-05 07:46 6.12136 106.23429 32999 ft 489 kts 33°
2026-05-05 07:46 6.17834 106.27155 32999 ft 489 kts 33°
2026-05-05 07:47 6.22573 106.30254 33000 ft 489 kts 33°
2026-05-05 07:47 6.29228 106.34608 33000 ft 489 kts 33°
2026-05-05 07:48 6.33967 106.37709 33000 ft 489 kts 33°
2026-05-05 07:48 6.39664 106.41438 32999 ft 489 kts 33°
2026-05-05 07:49 6.45359 106.45168 32999 ft 489 kts 33°
2026-05-05 07:49 6.51056 106.48898 33000 ft 489 kts 33°
2026-05-05 07:50 6.56752 106.52630 33000 ft 489 kts 33°
2026-05-05 07:50 6.62448 106.56362 33000 ft 489 kts 33°
2026-05-05 07:51 6.68139 106.60093 33000 ft 489 kts 33°
2026-05-05 07:51 6.73801 106.63805 33000 ft 489 kts 33°
2026-05-05 07:52 6.79499 106.67539 33000 ft 489 kts 33°
2026-05-05 07:52 6.85193 106.71276 33000 ft 489 kts 33°
2026-05-05 07:53 6.90919 106.75035 33000 ft 489 kts 33°
2026-05-05 07:53 6.96612 106.78774 32999 ft 489 kts 33°
2026-05-05 07:54 7.02304 106.82514 32999 ft 489 kts 33°
2026-05-05 07:54 7.07965 106.86237 33000 ft 489 kts 33°
2026-05-05 07:55 7.13654 106.89983 33000 ft 489 kts 33°
2026-05-05 07:55 7.19342 106.93730 33000 ft 489 kts 33°
2026-05-05 07:56 7.25033 106.97480 33000 ft 489 kts 33°
2026-05-05 07:56 7.30723 107.01228 33000 ft 489 kts 33°
2026-05-05 07:57 7.36414 107.04974 33000 ft 489 kts 33°
2026-05-05 07:57 7.42103 107.08723 33000 ft 489 kts 33°
2026-05-05 07:58 7.47791 107.12474 33000 ft 489 kts 33°
2026-05-05 07:58 7.53478 107.16225 32999 ft 489 kts 33°
2026-05-05 07:59 7.59166 107.19978 32999 ft 489 kts 33°
2026-05-05 07:59 7.64853 107.23732 33000 ft 489 kts 33°
2026-05-05 08:00 7.70541 107.27488 33000 ft 489 kts 33°
2026-05-05 08:00 7.76228 107.31244 33000 ft 489 kts 33°
2026-05-05 08:01 7.81869 107.34972 33000 ft 489 kts 33°
2026-05-05 08:01 7.87564 107.38736 33000 ft 489 kts 33°
2026-05-05 08:02 7.93249 107.42494 33000 ft 489 kts 33°
2026-05-05 08:02 7.98929 107.46251 33000 ft 489 kts 33°
2026-05-05 08:03 8.04617 107.50015 33000 ft 489 kts 33°
2026-05-05 08:03 8.10302 107.53777 33000 ft 489 kts 33°
2026-05-05 08:04 8.15992 107.57545 32999 ft 489 kts 33°
2026-05-05 08:04 8.21676 107.61309 32999 ft 489 kts 33°
2026-05-05 08:05 8.27358 107.65074 33000 ft 489 kts 33°
2026-05-05 08:05 8.33002 107.68814 33000 ft 489 kts 33°
2026-05-05 08:06 8.38684 107.72582 33000 ft 489 kts 33°
2026-05-05 08:06 8.44366 107.76350 33000 ft 489 kts 33°
2026-05-05 08:07 8.50048 107.80119 33000 ft 489 kts 33°
2026-05-05 08:07 8.55728 107.83890 33000 ft 489 kts 33°
2026-05-05 08:08 8.61409 107.87662 33000 ft 489 kts 33°
2026-05-05 08:08 8.67096 107.91439 33000 ft 489 kts 33°
2026-05-05 08:09 8.72776 107.95213 33000 ft 489 kts 33°
2026-05-05 08:09 8.78450 107.98985 32999 ft 489 kts 33°
2026-05-05 08:10 8.84132 108.02763 32999 ft 489 kts 33°
2026-05-05 08:10 8.89811 108.06541 33000 ft 489 kts 33°
2026-05-05 08:11 8.95489 108.10319 33000 ft 489 kts 33°
2026-05-05 08:11 9.01174 108.14104 33000 ft 489 kts 33°
2026-05-05 08:12 9.06852 108.17885 33000 ft 489 kts 33°
2026-05-05 08:12 9.12529 108.21667 33000 ft 489 kts 33°
2026-05-05 08:13 9.18205 108.25450 33000 ft 489 kts 33°
2026-05-05 08:13 9.23852 108.29211 33000 ft 489 kts 33°
2026-05-05 08:14 9.29528 108.32997 33000 ft 489 kts 33°
2026-05-05 08:14 9.35198 108.36783 33000 ft 489 kts 33°
2026-05-05 08:15 9.40880 108.40578 33000 ft 489 kts 33°
2026-05-05 08:15 9.46550 108.44366 32999 ft 489 kts 33°
2026-05-05 08:16 9.52234 108.48156 32999 ft 489 kts 33°
2026-05-05 08:16 9.57906 108.51939 33000 ft 489 kts 33°
2026-05-05 08:17 9.63589 108.55733 33000 ft 489 kts 33°
2026-05-05 08:17 9.69264 108.59524 33000 ft 489 kts 33°
2026-05-05 08:18 9.74943 108.63310 33000 ft 489 kts 33°
2026-05-05 08:18 9.80621 108.67100 33000 ft 489 kts 33°
2026-05-05 08:19 9.86296 108.70895 33000 ft 489 kts 33°
2026-05-05 08:19 9.91971 108.74693 33000 ft 489 kts 33°
2026-05-05 08:20 9.97645 108.78490 33000 ft 489 kts 33°
2026-05-05 08:20 10.03319 108.82287 33000 ft 489 kts 33°
2026-05-05 08:21 10.08994 108.86084 33000 ft 489 kts 33°
2026-05-05 08:21 10.14669 108.89885 33000 ft 489 kts 33°
2026-05-05 08:22 10.20303 108.93661 32999 ft 489 kts 33°
2026-05-05 08:22 10.25976 108.97464 32999 ft 489 kts 33°
2026-05-05 08:23 10.31650 109.01263 33000 ft 489 kts 33°
2026-05-05 08:23 10.37324 109.05065 33000 ft 489 kts 33°
2026-05-05 08:24 10.42998 109.08870 33000 ft 489 kts 33°
2026-05-05 08:24 10.48668 109.12676 33000 ft 489 kts 33°
2026-05-05 08:25 10.54342 109.16487 33000 ft 489 kts 33°
2026-05-05 08:25 10.60006 109.20292 33000 ft 489 kts 33°
2026-05-05 08:26 10.65679 109.24106 33000 ft 489 kts 33°
2026-05-05 08:26 10.71352 109.27920 33000 ft 489 kts 33°
2026-05-05 08:27 10.77027 109.31738 33000 ft 489 kts 33°
2026-05-05 08:27 10.82689 109.35550 33000 ft 489 kts 33°
2026-05-05 08:28 10.88367 109.39367 33000 ft 489 kts 33°
2026-05-05 08:28 10.94036 109.43187 32999 ft 489 kts 33°
2026-05-05 08:29 10.99700 109.47008 32999 ft 489 kts 33°
2026-05-05 08:30 11.08204 109.52746 33000 ft 489 kts 33°
2026-05-05 08:30 11.13880 109.56556 33000 ft 489 kts 33°
2026-05-05 08:31 11.19558 109.60277 33000 ft 489 kts 33°
2026-05-05 08:31 11.25269 109.64031 33000 ft 489 kts 33°
2026-05-05 08:32 11.30977 109.67792 32999 ft 489 kts 33°
2026-05-05 08:32 11.36682 109.71556 32999 ft 489 kts 33°
2026-05-05 08:33 11.42391 109.75319 32999 ft 489 kts 33°
2026-05-05 08:33 11.48101 109.79081 33000 ft 489 kts 33°
2026-05-05 08:34 11.53807 109.82848 33000 ft 489 kts 33°
2026-05-05 08:34 11.59515 109.86618 33000 ft 489 kts 33°
2026-05-05 08:35 11.65214 109.90385 33000 ft 489 kts 33°
2026-05-05 08:35 11.69959 109.93522 32999 ft 489 kts 33°
2026-05-05 08:36 11.75663 109.97296 32999 ft 489 kts 33°
2026-05-05 08:36 11.81364 110.01069 32999 ft 489 kts 33°
2026-05-05 08:37 11.87068 110.04846 33000 ft 489 kts 33°
2026-05-05 08:37 11.92770 110.08625 33000 ft 489 kts 33°
2026-05-05 08:38 11.98474 110.12406 33000 ft 489 kts 33°
2026-05-05 08:38 12.04175 110.16187 33000 ft 489 kts 33°
2026-05-05 08:39 12.09876 110.19970 33000 ft 489 kts 33°
2026-05-05 08:39 12.15579 110.23750 33000 ft 489 kts 33°
2026-05-05 08:40 12.21281 110.27540 33000 ft 489 kts 33°
2026-05-05 08:40 12.26975 110.31327 33000 ft 489 kts 33°
2026-05-05 08:41 12.32673 110.35119 33000 ft 489 kts 33°
2026-05-05 08:41 12.38365 110.38920 33000 ft 489 kts 33°
2026-05-05 08:42 12.43974 110.42849 33000 ft 489 kts 34°
2026-05-05 08:42 12.49549 110.46757 32999 ft 489 kts 34°
2026-05-05 08:43 12.55170 110.50682 32999 ft 489 kts 34°
2026-05-05 08:43 12.60783 110.54607 32999 ft 489 kts 34°
2026-05-05 08:44 12.66395 110.58535 33000 ft 489 kts 34°
2026-05-05 08:44 12.72001 110.62458 33000 ft 489 kts 34°
2026-05-05 08:45 12.77617 110.66390 33000 ft 489 kts 34°
2026-05-05 08:45 12.83230 110.70318 33000 ft 489 kts 34°
2026-05-05 08:46 12.88842 110.74250 33000 ft 489 kts 34°
2026-05-05 08:46 12.94452 110.78185 33000 ft 489 kts 34°
2026-05-05 08:47 13.00061 110.82121 33000 ft 489 kts 34°
2026-05-05 08:47 13.05681 110.86059 33000 ft 489 kts 34°
2026-05-05 08:48 13.11294 110.89992 33000 ft 489 kts 34°
2026-05-05 08:48 13.16900 110.93927 33000 ft 489 kts 34°
2026-05-05 08:49 13.22479 110.97847 33000 ft 489 kts 34°
2026-05-05 08:49 13.28089 111.01791 33000 ft 489 kts 34°
2026-05-05 08:50 13.33694 111.05734 32999 ft 489 kts 34°
2026-05-05 08:50 13.39300 111.09681 32999 ft 489 kts 34°
2026-05-05 08:51 13.44907 111.13629 32999 ft 489 kts 34°
2026-05-05 08:51 13.50513 111.17580 33000 ft 489 kts 34°
2026-05-05 08:52 13.56117 111.21532 33000 ft 489 kts 34°
2026-05-05 08:52 13.61721 111.25486 33000 ft 489 kts 34°
2026-05-05 08:53 13.67325 111.29442 33000 ft 489 kts 34°
2026-05-05 08:53 13.72930 111.33397 33000 ft 489 kts 34°
2026-05-05 08:54 13.78539 111.37357 33000 ft 489 kts 34°
2026-05-05 08:54 13.84135 111.41318 33000 ft 489 kts 34°
2026-05-05 08:55 13.89735 111.45284 33000 ft 489 kts 34°
2026-05-05 08:55 13.95341 111.49255 33000 ft 489 kts 34°
2026-05-05 08:56 14.00942 111.53215 33000 ft 489 kts 34°
2026-05-05 08:56 14.06560 111.57157 33000 ft 489 kts 34°
2026-05-05 08:57 14.12171 111.61103 33000 ft 489 kts 34°
2026-05-05 08:57 14.17785 111.65056 33000 ft 489 kts 34°
2026-05-05 08:58 14.23397 111.69009 33000 ft 489 kts 34°
2026-05-05 08:58 14.29011 111.72960 32999 ft 489 kts 34°
2026-05-05 08:59 14.34591 111.76880 32999 ft 489 kts 34°
2026-05-05 08:59 14.40202 111.80838 32999 ft 489 kts 34°
2026-05-05 09:00 14.45810 111.84800 33000 ft 489 kts 34°
2026-05-05 09:00 14.51421 111.88766 33000 ft 489 kts 34°
2026-05-05 09:01 14.57029 111.92731 33000 ft 489 kts 34°
2026-05-05 09:01 14.62624 111.96719 33000 ft 489 kts 34°
2026-05-05 09:02 14.68218 112.00711 33000 ft 489 kts 34°
2026-05-05 09:02 14.73821 112.04691 33000 ft 489 kts 34°
2026-05-05 09:03 14.79448 112.08630 33000 ft 489 kts 34°
2026-05-05 09:03 14.85071 112.12579 33000 ft 489 kts 34°
2026-05-05 09:04 14.90692 112.16534 33000 ft 489 kts 34°
2026-05-05 09:04 14.96313 112.20493 33000 ft 489 kts 34°
2026-05-05 09:05 15.01932 112.24444 33000 ft 489 kts 34°
2026-05-05 09:05 15.07556 112.28398 33000 ft 489 kts 34°
2026-05-05 09:06 15.13166 112.32350 33000 ft 489 kts 34°
2026-05-05 09:06 15.18793 112.36319 33000 ft 489 kts 34°
2026-05-05 09:07 15.24409 112.40282 33000 ft 489 kts 34°
2026-05-05 09:07 15.30025 112.44249 32999 ft 489 kts 34°
2026-05-05 09:08 15.35601 112.48191 32999 ft 489 kts 34°
2026-05-05 09:08 15.41222 112.52166 32999 ft 489 kts 34°
2026-05-05 09:09 15.46835 112.56139 33000 ft 489 kts 34°
2026-05-05 09:09 15.52446 112.60113 33000 ft 489 kts 34°
2026-05-05 09:10 15.58058 112.64090 33000 ft 489 kts 34°
2026-05-05 09:10 15.63670 112.68070 33000 ft 489 kts 34°
2026-05-05 09:11 15.69285 112.72055 33000 ft 489 kts 34°
2026-05-05 09:11 15.74895 112.76039 33000 ft 489 kts 34°
2026-05-05 09:12 15.80501 112.80023 33000 ft 489 kts 34°
2026-05-05 09:12 15.86114 112.84014 33000 ft 489 kts 34°
2026-05-05 09:13 15.91720 112.88004 33000 ft 489 kts 34°
2026-05-05 09:13 15.97330 112.91999 33000 ft 489 kts 34°
2026-05-05 09:14 16.02936 112.95994 33000 ft 489 kts 34°
2026-05-05 09:14 16.08541 112.99990 33000 ft 489 kts 34°
2026-05-05 09:15 16.14110 113.03965 33000 ft 489 kts 34°
2026-05-05 09:15 16.19713 113.07966 33000 ft 489 kts 34°
2026-05-05 09:16 16.25318 113.11971 33000 ft 489 kts 34°
2026-05-05 09:16 16.30926 113.15981 33000 ft 489 kts 34°
2026-05-05 09:17 16.36521 113.19985 32999 ft 489 kts 34°
2026-05-05 09:17 16.42125 113.23998 32999 ft 489 kts 34°
2026-05-05 09:18 16.47726 113.28012 32999 ft 489 kts 34°
2026-05-05 09:18 16.53324 113.32027 32999 ft 489 kts 34°
2026-05-05 09:19 16.58923 113.36045 33000 ft 489 kts 34°
2026-05-05 09:19 16.64522 113.40066 33000 ft 489 kts 34°
2026-05-05 09:20 16.70119 113.44089 33000 ft 489 kts 34°
2026-05-05 09:20 16.75720 113.48118 33000 ft 489 kts 34°
2026-05-05 09:21 16.81327 113.52143 33000 ft 489 kts 34°
2026-05-05 09:21 16.86883 113.56147 33000 ft 489 kts 34°
2026-05-05 09:22 16.91567 113.59526 33000 ft 489 kts 34°
2026-05-05 09:22 16.98061 113.64215 33000 ft 489 kts 34°
2026-05-05 09:23 17.03654 113.68254 33000 ft 489 kts 34°
2026-05-05 09:23 17.09273 113.72259 33000 ft 489 kts 34°
2026-05-05 09:24 17.13988 113.75609 33000 ft 489 kts 34°
2026-05-05 09:24 17.19606 113.79611 33000 ft 489 kts 34°
2026-05-05 09:25 17.25185 113.83592 33000 ft 489 kts 34°
2026-05-05 09:25 17.30803 113.87604 33000 ft 489 kts 34°
2026-05-05 09:26 17.36477 113.91643 33000 ft 498 kts 34°
2026-05-05 09:26 17.42239 113.95753 33000 ft 504 kts 34°
2026-05-05 09:27 17.48022 113.99886 33000 ft 503 kts 34°
2026-05-05 09:27 17.53806 114.04024 33000 ft 502 kts 34°
2026-05-05 09:28 17.59578 114.08157 33000 ft 502 kts 34°
2026-05-05 09:28 17.65345 114.12290 33000 ft 503 kts 34°
2026-05-05 09:29 17.71118 114.16430 33020 ft 502 kts 34°
2026-05-05 09:29 17.76888 114.20572 33094 ft 503 kts 34°
2026-05-05 09:30 17.82675 114.24729 33100 ft 504 kts 34°
2026-05-05 09:30 17.88455 114.28885 33100 ft 503 kts 34°
2026-05-05 09:31 17.94231 114.33041 33100 ft 503 kts 34°
2026-05-05 09:31 18.00004 114.37190 33100 ft 503 kts 34°
2026-05-05 09:32 18.05783 114.41352 33100 ft 503 kts 34°
2026-05-05 09:32 18.11554 114.45519 33100 ft 503 kts 34°
2026-05-05 09:33 18.17329 114.49693 33100 ft 503 kts 34°
2026-05-05 09:33 18.23506 114.52936 33099 ft 503 kts 14°
2026-05-05 09:34 18.30467 114.53568 33101 ft 504 kts 358°
2026-05-05 09:34 18.37429 114.52797 33100 ft 504 kts 352°
2026-05-05 09:35 18.44364 114.51755 33099 ft 503 kts 352°
2026-05-05 09:35 18.54794 114.50398 33100 ft 503 kts 353°
2026-05-05 09:36 18.61750 114.49523 33100 ft 503 kts 353°
2026-05-05 09:36 18.68703 114.48649 33100 ft 503 kts 353°
2026-05-05 09:37 18.75658 114.47775 33100 ft 503 kts 353°
2026-05-05 09:37 18.82610 114.46898 33100 ft 503 kts 353°
2026-05-05 09:38 18.89568 114.46019 33100 ft 503 kts 353°
2026-05-05 09:38 18.96522 114.45140 33100 ft 503 kts 353°
2026-05-05 09:39 19.03479 114.44300 33100 ft 503 kts 354°
2026-05-05 09:39 19.10462 114.43727 33099 ft 503 kts 356°
2026-05-05 09:40 19.17445 114.43168 33099 ft 503 kts 355°
2026-05-05 09:40 19.24425 114.42571 33099 ft 503 kts 355°
2026-05-05 09:41 19.31405 114.41964 33099 ft 503 kts 355°
2026-05-05 09:41 19.38344 114.41361 33099 ft 503 kts 355°
2026-05-05 09:42 19.45323 114.40752 33099 ft 503 kts 355°
2026-05-05 09:42 19.52304 114.40142 33100 ft 503 kts 355°
2026-05-05 09:43 19.59285 114.39533 33100 ft 503 kts 355°
2026-05-05 09:43 19.66264 114.38922 33100 ft 503 kts 355°
2026-05-05 09:44 19.73239 114.38310 33100 ft 503 kts 355°
2026-05-05 09:44 19.80220 114.37697 33100 ft 503 kts 355°
2026-05-05 09:45 19.87200 114.37085 33100 ft 503 kts 355°
2026-05-05 09:45 19.94178 114.36476 33100 ft 503 kts 355°
2026-05-05 09:46 20.01170 114.35864 33100 ft 503 kts 355°
2026-05-05 09:46 20.08143 114.35252 33100 ft 503 kts 355°
2026-05-05 09:47 20.15077 114.34644 33100 ft 503 kts 355°
2026-05-05 09:47 20.22061 114.34033 33100 ft 503 kts 355°
2026-05-05 09:48 20.29041 114.33421 33100 ft 503 kts 355°
2026-05-05 09:48 20.36022 114.32808 33100 ft 503 kts 355°
2026-05-05 09:49 20.43002 114.32194 33100 ft 503 kts 355°
2026-05-05 09:49 20.49985 114.31579 33100 ft 503 kts 355°
2026-05-05 09:50 20.56965 114.30966 33100 ft 503 kts 355°
2026-05-05 09:50 20.63944 114.30350 33100 ft 503 kts 355°
2026-05-05 09:51 20.70923 114.29733 33100 ft 503 kts 355°
2026-05-05 09:51 20.77899 114.29116 33100 ft 503 kts 355°
2026-05-05 09:52 20.84882 114.28501 33099 ft 503 kts 355°
2026-05-05 09:52 20.91864 114.27901 33099 ft 503 kts 355°
2026-05-05 09:53 20.98798 114.27302 33099 ft 503 kts 355°
2026-05-05 09:53 21.05777 114.26697 33099 ft 503 kts 355°
2026-05-05 09:54 21.12755 114.26065 33099 ft 503 kts 355°
2026-05-05 09:54 21.19735 114.25431 33099 ft 503 kts 355°
2026-05-05 09:55 21.26710 114.24798 33100 ft 503 kts 355°
2026-05-05 09:55 21.33697 114.24165 33100 ft 503 kts 355°
2026-05-05 09:56 21.40675 114.23542 33100 ft 503 kts 355°
2026-05-05 09:56 21.47653 114.22915 33100 ft 503 kts 355°
2026-05-05 09:57 21.54633 114.22288 33100 ft 503 kts 355°
2026-05-05 09:57 21.61613 114.21659 33100 ft 503 kts 355°
2026-05-05 09:58 21.68591 114.21032 33100 ft 503 kts 355°
2026-05-05 09:58 21.75571 114.20406 33100 ft 503 kts 355°
2026-05-05 09:59 21.82550 114.19778 33100 ft 503 kts 355°
2026-05-05 09:59 21.89527 114.19151 33100 ft 503 kts 355°
2026-05-05 10:00 21.96512 114.18521 33100 ft 503 kts 355°
2026-05-05 10:00 22.03487 114.17894 33100 ft 503 kts 355°
2026-05-05 10:01 22.10466 114.17266 33100 ft 503 kts 355°
2026-05-05 10:01 22.17447 114.16637 33100 ft 503 kts 355°
2026-05-05 10:02 22.24427 114.16007 33100 ft 503 kts 355°
2026-05-05 10:02 22.31406 114.15377 33100 ft 503 kts 355°
2026-05-05 10:03 22.38391 114.14744 33100 ft 503 kts 355°
2026-05-05 10:03 22.45368 114.14111 33100 ft 503 kts 355°
2026-05-05 10:04 22.52262 114.13191 33099 ft 503 kts 347°
2026-05-05 10:04 22.58930 114.10883 33099 ft 503 kts 339°
2026-05-05 10:05 22.65322 114.07781 33100 ft 503 kts 334°
2026-05-05 10:05 22.71610 114.04458 33099 ft 503 kts 334°
2026-05-05 10:06 22.77935 114.01200 33099 ft 503 kts 334°
2026-05-05 10:06 22.84265 113.97945 33100 ft 503 kts 334°
2026-05-05 10:07 22.90592 113.94689 33100 ft 503 kts 334°
2026-05-05 10:07 22.96905 113.91409 33100 ft 503 kts 334°
2026-05-05 10:08 23.03223 113.88117 33100 ft 503 kts 334°
2026-05-05 10:08 23.09549 113.84855 33099 ft 503 kts 336°
2026-05-05 10:09 23.16069 113.82084 33100 ft 503 kts 340°
2026-05-05 10:09 23.21568 113.80026 33100 ft 503 kts 341°
2026-05-05 10:10 23.28176 113.77506 33100 ft 503 kts 340°
2026-05-05 10:10 23.35886 113.74485 33100 ft 503 kts 340°
2026-05-05 10:11 23.41351 113.72329 33100 ft 503 kts 340°
2026-05-05 10:11 23.47941 113.69738 33100 ft 503 kts 340°
2026-05-05 10:12 23.54521 113.67141 33099 ft 503 kts 340°
2026-05-05 10:12 23.61106 113.64535 33099 ft 503 kts 340°
2026-05-05 10:13 23.67688 113.61928 33099 ft 503 kts 340°
2026-05-05 10:13 23.74269 113.59318 33099 ft 503 kts 340°
2026-05-05 10:14 23.80854 113.56703 33099 ft 503 kts 340°
2026-05-05 10:14 23.87396 113.54103 33099 ft 503 kts 340°
2026-05-05 10:15 23.94020 113.51476 33099 ft 503 kts 340°
2026-05-05 10:15 24.00559 113.48870 33099 ft 503 kts 340°
2026-05-05 10:16 24.07185 113.46224 33099 ft 503 kts 340°
2026-05-05 10:16 24.13715 113.43624 33096 ft 502 kts 341°
2026-05-05 10:17 24.20511 113.41840 33099 ft 503 kts 350°
2026-05-05 10:17 24.27481 113.41549 33103 ft 503 kts
2026-05-05 10:18 24.34471 113.42044 33100 ft 504 kts
2026-05-05 10:18 24.41482 113.42169 33100 ft 504 kts
2026-05-05 10:19 24.48481 113.42383 33100 ft 503 kts
2026-05-05 10:19 24.55483 113.42585 33100 ft 503 kts
2026-05-05 10:20 24.62482 113.42786 33100 ft 503 kts
2026-05-05 10:20 24.69481 113.42988 33100 ft 503 kts
2026-05-05 10:21 24.76489 113.43190 33100 ft 503 kts
2026-05-05 10:21 24.83488 113.43391 33100 ft 503 kts
2026-05-05 10:22 24.90489 113.43593 33100 ft 503 kts
2026-05-05 10:22 24.97491 113.43796 33100 ft 503 kts
2026-05-05 10:23 25.04493 113.43999 33099 ft 503 kts
2026-05-05 10:23 25.11492 113.44201 33099 ft 503 kts
2026-05-05 10:24 25.18491 113.44405 33099 ft 503 kts
2026-05-05 10:24 25.25493 113.44608 33099 ft 503 kts
2026-05-05 10:25 25.32493 113.44812 33099 ft 503 kts
2026-05-05 10:25 25.39452 113.45014 33099 ft 503 kts
2026-05-05 10:26 25.46453 113.45219 33099 ft 503 kts
2026-05-05 10:26 25.53458 113.45423 33099 ft 503 kts
2026-05-05 10:27 25.60458 113.45627 33099 ft 503 kts
2026-05-05 10:27 25.67459 113.45832 33099 ft 503 kts
2026-05-05 10:28 25.74466 113.46038 33099 ft 503 kts
2026-05-05 10:28 25.81463 113.46243 33099 ft 503 kts
2026-05-05 10:29 25.88463 113.46423 33099 ft 503 kts
2026-05-05 10:29 25.95463 113.46199 33100 ft 503 kts 357°
2026-05-05 10:30 26.02464 113.45825 33100 ft 503 kts 358°
2026-05-05 10:30 26.09459 113.45530 33100 ft 503 kts 358°
2026-05-05 10:31 26.16463 113.45255 33100 ft 503 kts 358°
2026-05-05 10:31 26.23460 113.44985 33100 ft 503 kts 358°
2026-05-05 10:32 26.30456 113.44715 33100 ft 503 kts 358°
2026-05-05 10:32 26.37461 113.44442 33100 ft 503 kts 358°
2026-05-05 10:33 26.44457 113.44170 33100 ft 503 kts 358°
2026-05-05 10:33 26.51416 113.43900 33100 ft 503 kts 358°
2026-05-05 10:34 26.58412 113.43634 33100 ft 503 kts 358°
2026-05-05 10:34 26.65416 113.43369 33100 ft 503 kts 358°
2026-05-05 10:35 26.72413 113.43103 33100 ft 503 kts 358°
2026-05-05 10:35 26.79409 113.42837 33100 ft 503 kts 358°
2026-05-05 10:36 26.86411 113.42571 33100 ft 503 kts 358°
2026-05-05 10:36 26.93412 113.42306 33100 ft 503 kts 358°
2026-05-05 10:37 27.00412 113.42039 33100 ft 503 kts 358°
2026-05-05 10:37 27.07414 113.41773 33100 ft 503 kts 358°
2026-05-05 10:38 27.14408 113.41505 33100 ft 503 kts 358°
2026-05-05 10:38 27.21411 113.41237 33100 ft 503 kts 358°
2026-05-05 10:39 27.28413 113.40968 33100 ft 503 kts 358°
2026-05-05 10:39 27.35408 113.40728 33100 ft 503 kts 359°
2026-05-05 10:40 27.42410 113.40899 33100 ft 503 kts
2026-05-05 10:40 27.49412 113.41106 33100 ft 503 kts
2026-05-05 10:41 27.56371 113.41233 33100 ft 503 kts
2026-05-05 10:41 27.63375 113.41363 33100 ft 503 kts
2026-05-05 10:42 27.73857 113.42092 33100 ft 503 kts
2026-05-05 10:43 27.80832 113.42736 33099 ft 503 kts
2026-05-05 10:43 27.87816 113.43346 33099 ft 503 kts
2026-05-05 10:44 27.94796 113.43972 33099 ft 503 kts
2026-05-05 10:44 28.01781 113.44577 33100 ft 503 kts
2026-05-05 10:45 28.08764 113.45257 33099 ft 503 kts
2026-05-05 10:45 28.15748 113.45756 33100 ft 503 kts
2026-05-05 10:46 28.22748 113.46200 33100 ft 503 kts
2026-05-05 10:46 28.29732 113.46694 33099 ft 503 kts
2026-05-05 10:47 28.36729 113.47184 33099 ft 503 kts
2026-05-05 10:47 28.43716 113.47684 33099 ft 503 kts
2026-05-05 10:48 28.50704 113.48193 33099 ft 503 kts
2026-05-05 10:48 28.57697 113.48705 33099 ft 503 kts
2026-05-05 10:49 28.64685 113.49218 33099 ft 503 kts
2026-05-05 10:49 28.71673 113.49731 33099 ft 503 kts
2026-05-05 10:50 28.78665 113.50243 33099 ft 503 kts
2026-05-05 10:50 28.85659 113.50739 33099 ft 503 kts
2026-05-05 10:51 28.92594 113.51234 33099 ft 503 kts
2026-05-05 10:51 28.99591 113.51732 33099 ft 503 kts
2026-05-05 10:52 29.06574 113.52231 33099 ft 503 kts
2026-05-05 10:52 29.13570 113.52733 33099 ft 503 kts
2026-05-05 10:53 29.20559 113.53236 33099 ft 503 kts
2026-05-05 10:53 29.27548 113.53738 33099 ft 503 kts
2026-05-05 10:54 29.34533 113.54312 33099 ft 503 kts
2026-05-05 10:54 29.41514 113.54940 33099 ft 503 kts
2026-05-05 10:55 29.48504 113.55556 33099 ft 503 kts
2026-05-05 10:55 29.55480 113.56169 33099 ft 503 kts
2026-05-05 10:56 29.62470 113.56782 33099 ft 503 kts
2026-05-05 10:56 29.69448 113.57390 33099 ft 503 kts
2026-05-05 10:57 29.75305 113.57905 33100 ft 503 kts
2026-05-05 10:57 29.82239 113.58517 33100 ft 503 kts
2026-05-05 10:58 29.90393 113.59311 33102 ft 503 kts
2026-05-05 10:58 29.96056 113.60813 33100 ft 503 kts 17°
2026-05-05 10:59 30.02644 113.63558 33100 ft 503 kts 22°
2026-05-05 10:59 30.09062 113.66791 33100 ft 503 kts 24°
2026-05-05 11:00 30.15474 113.70044 33100 ft 503 kts 23°
2026-05-05 11:00 30.21902 113.73270 33100 ft 503 kts 23°
2026-05-05 11:01 30.28331 113.76484 33100 ft 503 kts 23°
2026-05-05 11:01 30.34760 113.79692 33100 ft 503 kts 23°
2026-05-05 11:02 30.41189 113.82903 33100 ft 503 kts 23°
2026-05-05 11:02 30.47611 113.86133 33100 ft 503 kts 23°
2026-05-05 11:03 30.53990 113.89349 33100 ft 503 kts 23°
2026-05-05 11:03 30.60418 113.92591 33100 ft 503 kts 23°
2026-05-05 11:04 30.66887 113.95830 33100 ft 503 kts 22°
2026-05-05 11:04 30.73332 113.99028 33099 ft 503 kts 25°
2026-05-05 11:05 30.79593 114.02654 33098 ft 503 kts 26°
2026-05-05 11:05 30.85905 114.06051 33099 ft 503 kts 24°
2026-05-05 11:06 30.92273 114.09462 33100 ft 503 kts 25°
2026-05-05 11:06 30.98621 114.12921 33100 ft 503 kts 25°
2026-05-05 11:07 31.04964 114.16379 33100 ft 503 kts 25°
2026-05-05 11:07 31.11314 114.19815 33100 ft 503 kts 25°
2026-05-05 11:08 31.17665 114.23275 33100 ft 503 kts 25°
2026-05-05 11:08 31.24008 114.26743 33100 ft 503 kts 25°
2026-05-05 11:09 31.30350 114.30210 33098 ft 503 kts 24°
2026-05-05 11:09 31.36999 114.32688 33101 ft 503 kts 10°
2026-05-05 11:10 31.43957 114.33586 33101 ft 504 kts
2026-05-05 11:10 31.50967 114.33707 33101 ft 503 kts
2026-05-05 11:11 31.57971 114.33860 33100 ft 503 kts
2026-05-05 11:11 31.64969 114.34073 33100 ft 503 kts
2026-05-05 11:12 31.71968 114.34284 33100 ft 503 kts
2026-05-05 11:12 31.78930 114.34443 33100 ft 503 kts
2026-05-05 11:13 31.85926 114.34622 33100 ft 503 kts
2026-05-05 11:13 31.92927 114.34855 33100 ft 503 kts
2026-05-05 11:14 31.99933 114.35079 33100 ft 503 kts
2026-05-05 11:14 32.06938 114.35302 33100 ft 503 kts
2026-05-05 11:15 32.13933 114.35525 33100 ft 503 kts
2026-05-05 11:15 32.20935 114.35748 33100 ft 503 kts
2026-05-05 11:16 32.27941 114.35992 33100 ft 503 kts
2026-05-05 11:16 32.34930 114.36627 33100 ft 503 kts
2026-05-05 11:17 32.41904 114.37334 33100 ft 503 kts
2026-05-05 11:17 32.48886 114.37964 33100 ft 503 kts
2026-05-05 11:18 32.55872 114.38590 33100 ft 503 kts
2026-05-05 11:18 32.62809 114.39212 33100 ft 503 kts
2026-05-05 11:19 32.69797 114.39855 33100 ft 503 kts
2026-05-05 11:19 32.76777 114.40510 33100 ft 503 kts
2026-05-05 11:20 32.83759 114.41166 33100 ft 503 kts
2026-05-05 11:20 32.90747 114.41823 33100 ft 503 kts
2026-05-05 11:21 32.97730 114.42478 33100 ft 503 kts
2026-05-05 11:21 33.04709 114.43131 33100 ft 503 kts
2026-05-05 11:22 33.11698 114.43790 33100 ft 503 kts
2026-05-05 11:22 33.18681 114.44451 33100 ft 503 kts
2026-05-05 11:23 33.25663 114.45112 33100 ft 503 kts
2026-05-05 11:23 33.32638 114.45770 33100 ft 503 kts
2026-05-05 11:24 33.39621 114.46430 33099 ft 503 kts
2026-05-05 11:24 33.46602 114.47092 33099 ft 503 kts
2026-05-05 11:25 33.53589 114.47756 33099 ft 503 kts
2026-05-05 11:25 33.60576 114.48421 33099 ft 503 kts
2026-05-05 11:26 33.67551 114.49061 33099 ft 503 kts
2026-05-05 11:26 33.74536 114.49698 33099 ft 503 kts
2026-05-05 11:27 33.81519 114.50337 33099 ft 503 kts
2026-05-05 11:27 33.88498 114.50995 33099 ft 503 kts
2026-05-05 11:28 33.95446 114.51657 33099 ft 503 kts
2026-05-05 11:28 34.02423 114.52322 33099 ft 503 kts
2026-05-05 11:29 34.09404 114.52989 33099 ft 503 kts
2026-05-05 11:29 34.16388 114.53652 33099 ft 503 kts
2026-05-05 11:30 34.23377 114.54317 33099 ft 503 kts
2026-05-05 11:30 34.30356 114.54986 33099 ft 503 kts
2026-05-05 11:31 34.37342 114.55657 33099 ft 503 kts
2026-05-05 11:31 34.44325 114.56329 33099 ft 503 kts
2026-05-05 11:32 34.51308 114.56995 33100 ft 503 kts
2026-05-05 11:32 34.58287 114.57659 33100 ft 503 kts
2026-05-05 11:33 34.65273 114.58325 33100 ft 503 kts
2026-05-05 11:33 34.72247 114.58991 33100 ft 503 kts
2026-05-05 11:34 34.79233 114.59660 33100 ft 503 kts
2026-05-05 11:34 34.86211 114.60324 33100 ft 503 kts
2026-05-05 11:35 34.93202 114.60992 33100 ft 503 kts
2026-05-05 11:35 35.00132 114.61657 33100 ft 503 kts
2026-05-05 11:36 35.07115 114.62328 33100 ft 503 kts
2026-05-05 11:36 35.14105 114.63001 33100 ft 503 kts
2026-05-05 11:37 35.21078 114.63674 33100 ft 503 kts
2026-05-05 11:37 35.28056 114.64348 33100 ft 503 kts
2026-05-05 11:38 35.35046 114.65025 33100 ft 503 kts
2026-05-05 11:38 35.42024 114.65702 33100 ft 503 kts
2026-05-05 11:39 35.49010 114.66381 33100 ft 503 kts
2026-05-05 11:39 35.55986 114.67060 33100 ft 503 kts
2026-05-05 11:40 35.62973 114.67741 33100 ft 503 kts
2026-05-05 11:40 35.69959 114.68423 33100 ft 503 kts
2026-05-05 11:41 35.76932 114.69105 33100 ft 503 kts
2026-05-05 11:41 35.83916 114.69787 33100 ft 503 kts
2026-05-05 11:42 35.90897 114.70473 33100 ft 503 kts
2026-05-05 11:42 35.97877 114.71161 33100 ft 503 kts
2026-05-05 11:43 36.04815 114.71846 33100 ft 503 kts
2026-05-05 11:43 36.11799 114.72529 33100 ft 503 kts
2026-05-05 11:44 36.18782 114.73204 33100 ft 503 kts
2026-05-05 11:44 36.25768 114.73883 33100 ft 503 kts
2026-05-05 11:45 36.32746 114.74607 33103 ft 503 kts
2026-05-05 11:45 36.38406 114.76175 33099 ft 503 kts 18°
2026-05-05 11:46 36.44953 114.79290 33100 ft 504 kts 24°
2026-05-05 11:46 36.51301 114.82957 33100 ft 503 kts 25°
2026-05-05 11:47 36.57625 114.86697 33100 ft 503 kts 25°
2026-05-05 11:47 36.63967 114.90412 33099 ft 503 kts 25°
2026-05-05 11:48 36.73477 114.95943 33100 ft 503 kts 25°
2026-05-05 11:48 36.79823 114.99633 33100 ft 503 kts 25°
2026-05-05 11:49 36.86166 115.03338 33100 ft 503 kts 25°
2026-05-05 11:49 36.92515 115.07056 33100 ft 503 kts 25°
2026-05-05 11:50 36.98846 115.10771 33100 ft 503 kts 25°
2026-05-05 11:50 37.05184 115.14497 33100 ft 503 kts 25°
2026-05-05 11:51 37.11522 115.18231 33100 ft 503 kts 25°
2026-05-05 11:51 37.17864 115.21974 33100 ft 503 kts 25°
2026-05-05 11:52 37.24200 115.25720 33100 ft 503 kts 25°
2026-05-05 11:52 37.30485 115.29443 33100 ft 503 kts 25°
2026-05-05 11:53 37.36825 115.33205 33100 ft 503 kts 25°
2026-05-05 11:53 37.43146 115.36964 33100 ft 503 kts 25°
2026-05-05 11:54 37.49478 115.40736 33100 ft 503 kts 25°
2026-05-05 11:54 37.55816 115.44498 33100 ft 503 kts 25°
2026-05-05 11:55 37.62145 115.48284 33100 ft 503 kts 25°
2026-05-05 11:55 37.68463 115.52079 33100 ft 503 kts 25°
2026-05-05 11:56 37.74791 115.55858 33097 ft 502 kts 23°
2026-05-05 11:56 37.81518 115.58158 33100 ft 503 kts
2026-05-05 11:57 37.88519 115.58418 33101 ft 504 kts 357°
2026-05-05 11:57 37.95510 115.57758 33101 ft 503 kts 355°
2026-05-05 11:58 38.02495 115.57208 33100 ft 503 kts 356°
2026-05-05 11:58 38.09494 115.56694 32919 ft 501 kts 357°
2026-05-05 11:59 38.12949 115.56561 32575 ft 494 kts 359°
2026-05-05 11:59 38.16362 115.56386 32228 ft 489 kts 356°
2026-05-05 11:59 38.19745 115.56116 31879 ft 485 kts 356°
2026-05-05 11:59 38.23106 115.56006 31526 ft 482 kts
2026-05-05 12:00 38.26419 115.56514 31176 ft 479 kts 11°
2026-05-05 12:00 38.29586 115.57608 30831 ft 477 kts 18°
2026-05-05 12:00 38.32670 115.59113 30482 ft 474 kts 23°
2026-05-05 12:00 38.35657 115.60898 30132 ft 471 kts 26°
2026-05-05 12:01 38.38553 115.62822 29783 ft 469 kts 27°
2026-05-05 12:01 38.41439 115.64723 29433 ft 466 kts 27°
2026-05-05 12:01 38.44337 115.66562 29082 ft 464 kts 26°
2026-05-05 12:01 38.47223 115.68374 28732 ft 461 kts 26°
2026-05-05 12:02 38.50098 115.70186 28381 ft 459 kts 26°
2026-05-05 12:02 38.52952 115.71985 28030 ft 456 kts 26°
2026-05-05 12:02 38.55784 115.73779 27680 ft 454 kts 26°
2026-05-05 12:02 38.58607 115.75572 27329 ft 451 kts 26°
2026-05-05 12:03 38.61407 115.77351 26979 ft 449 kts 26°
2026-05-05 12:03 38.64171 115.79207 26625 ft 447 kts 30°
2026-05-05 12:03 38.66765 115.81368 26276 ft 444 kts 35°
2026-05-05 12:03 38.69367 115.83463 25923 ft 442 kts 26°
2026-05-05 12:04 38.72233 115.84836 25572 ft 440 kts 14°
2026-05-05 12:04 38.75245 115.85396 25218 ft 437 kts
2026-05-05 12:04 38.78268 115.85167 24875 ft 434 kts 354°
2026-05-05 12:04 38.81272 115.84859 24528 ft 432 kts 357°
2026-05-05 12:05 38.84275 115.84680 24176 ft 430 kts 358°
2026-05-05 12:05 38.87256 115.84539 23826 ft 428 kts 358°
2026-05-05 12:05 38.90227 115.84389 23474 ft 426 kts 358°
2026-05-05 12:05 38.93172 115.84222 23125 ft 423 kts 357°
2026-05-05 12:06 38.96113 115.84044 22773 ft 421 kts 357°
2026-05-05 12:06 38.99026 115.83860 22423 ft 419 kts 357°
2026-05-05 12:06 39.01931 115.83672 22072 ft 417 kts 357°
2026-05-05 12:06 39.04815 115.83483 21722 ft 414 kts 357°
2026-05-05 12:07 39.07689 115.83293 21371 ft 412 kts 357°
2026-05-05 12:07 39.10544 115.83102 21021 ft 410 kts 357°
2026-05-05 12:07 39.13379 115.82913 20671 ft 408 kts 357°
2026-05-05 12:07 39.16212 115.82723 20319 ft 406 kts 357°
2026-05-05 12:08 39.19030 115.82534 19968 ft 404 kts 357°
2026-05-05 12:08 39.21818 115.82346 19619 ft 401 kts 357°
2026-05-05 12:08 39.24608 115.82158 19267 ft 399 kts 357°
2026-05-05 12:08 39.27367 115.81972 18917 ft 397 kts 357°
2026-05-05 12:09 39.30126 115.81786 18566 ft 395 kts 357°
2026-05-05 12:09 39.32861 115.81601 18216 ft 393 kts 357°
2026-05-05 12:09 39.35588 115.81417 17865 ft 391 kts 357°
2026-05-05 12:09 39.38297 115.81233 17514 ft 389 kts 357°
2026-05-05 12:10 39.40957 115.81053 17168 ft 387 kts 357°
2026-05-05 12:10 39.43675 115.80869 16813 ft 385 kts 357°
2026-05-05 12:10 39.46341 115.80688 16463 ft 383 kts 357°
2026-05-05 12:10 39.48959 115.80510 16117 ft 381 kts 357°
2026-05-05 12:11 39.51637 115.80328 15761 ft 379 kts 357°
2026-05-05 12:11 39.54265 115.80150 15411 ft 377 kts 357°
2026-05-05 12:11 39.56848 115.79974 15065 ft 376 kts 357°
2026-05-05 12:11 39.59454 115.79797 14715 ft 374 kts 357°
2026-05-05 12:12 39.62046 115.79620 14365 ft 372 kts 357°
2026-05-05 12:12 39.64623 115.79444 14015 ft 370 kts 357°
2026-05-05 12:12 39.67189 115.79269 13663 ft 367 kts 357°
2026-05-05 12:12 39.69733 115.79095 13313 ft 365 kts 357°
2026-05-05 12:13 39.72271 115.78922 12962 ft 364 kts 357°
2026-05-05 12:13 39.74788 115.78750 12611 ft 362 kts 357°
2026-05-05 12:13 39.77296 115.78578 12261 ft 360 kts 357°
2026-05-05 12:13 39.79791 115.78407 11910 ft 358 kts 357°
2026-05-05 12:14 39.82273 115.78237 11559 ft 356 kts 357°
2026-05-05 12:14 39.84743 115.78067 11208 ft 354 kts 357°
2026-05-05 12:14 39.87201 115.77899 10857 ft 353 kts 357°
2026-05-05 12:14 39.89642 115.77731 10506 ft 351 kts 357°
2026-05-05 12:15 39.92074 115.77564 10156 ft 349 kts 357°
2026-05-05 12:15 39.94491 115.77397 9805 ft 346 kts 357°
2026-05-05 12:15 39.96884 115.77233 9456 ft 343 kts 357°
2026-05-05 12:15 39.99265 115.77069 9105 ft 342 kts 357°
2026-05-05 12:16 40.01630 115.76906 8992 ft 339 kts 357°
2026-05-05 12:16 40.03988 115.76743 8926 ft 340 kts 357°
2026-05-05 12:16 40.06349 115.76580 8907 ft 340 kts 357°
2026-05-05 12:16 40.08713 115.76417 8906 ft 340 kts 357°
2026-05-05 12:17 40.11075 115.76254 8906 ft 340 kts 357°
2026-05-05 12:17 40.13438 115.76092 8906 ft 340 kts 357°
2026-05-05 12:17 40.15801 115.75929 8906 ft 340 kts 357°
2026-05-05 12:17 40.18137 115.75767 8906 ft 340 kts 357°
2026-05-05 12:18 40.20501 115.75603 8906 ft 340 kts 357°
2026-05-05 12:18 40.22862 115.75438 8906 ft 340 kts 357°
2026-05-05 12:18 40.25227 115.75274 8906 ft 340 kts 357°
2026-05-05 12:18 40.27586 115.75109 8906 ft 340 kts 357°
2026-05-05 12:19 40.29951 115.74945 8906 ft 340 kts 357°
2026-05-05 12:19 40.32316 115.74785 8904 ft 339 kts 358°
2026-05-05 12:19 40.34660 115.75032 8897 ft 339 kts 14°
2026-05-05 12:19 40.36787 115.76344 8904 ft 341 kts 36°
2026-05-05 12:20 40.38396 115.78605 8905 ft 341 kts 57°
2026-05-05 12:20 40.39284 115.81469 8721 ft 341 kts 76°
2026-05-05 12:20 40.39614 115.84533 8363 ft 336 kts 82°
2026-05-05 12:20 40.40129 115.87498 7990 ft 331 kts 72°
2026-05-05 12:21 40.40848 115.90333 7619 ft 326 kts 73°
2026-05-05 12:21 40.41335 115.93221 7242 ft 323 kts 82°
2026-05-05 12:21 40.41470 115.96150 6867 ft 320 kts 90°
2026-05-05 12:21 40.41346 115.99058 6493 ft 318 kts 95°
2026-05-05 12:22 40.41111 116.01937 6117 ft 316 kts 96°
2026-05-05 12:22 40.40892 116.04797 5742 ft 314 kts 95°
2026-05-05 12:22 40.40673 116.07638 5366 ft 312 kts 96°
2026-05-05 12:22 40.40428 116.10451 5230 ft 308 kts 97°
2026-05-05 12:23 40.40175 116.13221 5232 ft 304 kts 97°
2026-05-05 12:23 40.39933 116.15952 5234 ft 301 kts 96°
2026-05-05 12:23 40.39703 116.18680 5234 ft 300 kts 96°
2026-05-05 12:23 40.39466 116.21405 5234 ft 301 kts 96°
2026-05-05 12:24 40.39220 116.24137 5234 ft 302 kts 97°
2026-05-05 12:24 40.38969 116.26872 5234 ft 302 kts 97°
2026-05-05 12:24 40.38720 116.29563 5234 ft 302 kts 97°
2026-05-05 12:24 40.38465 116.32295 5234 ft 302 kts 97°
2026-05-05 12:25 40.38209 116.35024 5234 ft 302 kts 97°
2026-05-05 12:25 40.37953 116.37750 5234 ft 302 kts 97°
2026-05-05 12:25 40.37697 116.40479 5234 ft 302 kts 97°
2026-05-05 12:25 40.37440 116.43206 5234 ft 302 kts 97°
2026-05-05 12:26 40.37182 116.45937 5234 ft 302 kts 97°
2026-05-05 12:26 40.36926 116.48663 5234 ft 302 kts 97°
2026-05-05 12:26 40.36524 116.51353 5227 ft 301 kts 108°
2026-05-05 12:26 40.35566 116.53780 5234 ft 302 kts 125°
2026-05-05 12:27 40.34139 116.55793 5235 ft 302 kts 138°
2026-05-05 12:27 40.32394 116.57315 5233 ft 302 kts 153°
2026-05-05 12:27 40.30413 116.58181 5225 ft 296 kts 167°
2026-05-05 12:27 40.28437 116.58530 4874 ft 279 kts 174°
2026-05-05 12:28 40.26544 116.58697 4331 ft 267 kts 176°
2026-05-05 12:28 40.24729 116.58868 3780 ft 258 kts 175°
2026-05-05 12:28 40.22977 116.59083 3227 ft 246 kts 174°
2026-05-05 12:28 40.21343 116.59329 2704 ft 226 kts 173°
2026-05-05 12:29 40.19843 116.59575 2280 ft 206 kts 173°
2026-05-05 12:29 40.18490 116.59792 2022 ft 190 kts 173°
2026-05-05 12:29 40.17205 116.59994 1800 ft 182 kts 173°
2026-05-05 12:29 40.15991 116.60185 1599 ft 168 kts 173°
2026-05-05 12:30 40.14879 116.60360 1326 ft 154 kts 173°
2026-05-05 12:30 40.13862 116.60519 1082 ft 143 kts 173°
2026-05-05 12:30 40.12885 116.60673 879 ft 141 kts 173°
2026-05-05 12:30 40.11914 116.60825 684 ft 141 kts 173°
2026-05-05 12:31 40.10955 116.60975 491 ft 141 kts 173°
2026-05-05 12:31 40.09981 116.61133 306 ft 141 kts 173°
2026-05-05 12:31 40.09011 116.61269 183 ft 138 kts 173°
2026-05-05 12:31 40.08177 116.61394 131 ft 99 kts 172°
2026-05-05 12:32 40.07819 116.61447 129 ft 9 kts 203°